Temp
27 27 27 27 26 25 26 26 23 21 20 19 18 18 19 20 21 21 20 20 20 20 21 20 17 16 16 17 16 17 19 19
26 26 26 26 26 26 25 26 24 22 20 19 18 18 18 20 20 21 21 20 20 19 20 18 16 16 15 16 16 16 18 19
25 26 26 26 26 25 25 26 25 22 21 20 19 19 19 18 20 21 21 19 19 19 19 17 16 15 15 16 17 17 18 18
24 25 26 25 26 25 25 25 25 23 22 21 20 20 19 18 19 20 20 20 19 19 18 16 16 15 15 16 16 17 18 18
24 25 26 26 26 25 25 25 25 24 22 22 20 20 20 20 19 19 19 19 18 18 17 16 16 15 16 15 16 16 17 17
20 24 26 26 26 26 24 24 24 24 22 23 22 21 21 21 20 19 19 18 17 17 17 16 16 16 17 16 15 15 17 18
17 18 18 19 20 21 24 23 24 24 22 21 22 22 22 22 21 21 19 18 17 17 16 16 16 16 16 15 15 15 16 18
11 13 14 14 14 16 19 22 23 23 23 22 22 22 21 22 22 21 20 18 17 17 16 16 16 16 16 15 15 14 15 17
7 8 8 8 8 9 13 16 21 23 22 22 22 22 22 21 22 22 21 19 18 17 16 16 16 16 16 15 15 15 14 15
5 6 6 7 6 6 7 8 9 10 14 21 21 21 21 21 21 20 20 19 18 17 17 16 16 15 15 15 15 15 15 15
4 4 5 6 6 5 6 6 6 6 7 10 15 19 20 20 20 20 20 18 17 17 17 16 16 15 15 15 15 15 14 15
3 3 3 4 5 5 5 5 5 6 6 6 8 9 10 13 16 18 19 18 17 17 17 16 16 15 15 15 15 14 14 14
2 3 4 3 4 4 4 5 5 5 5 5 5 6 7 7 8 9 11 14 17 17 17 16 16 15 15 15 15 14 14 14
3 3 4 4 4 4 4 4 4 4 5 5 5 5 5 5 6 7 7 8 9 14 15 16 16 15 15 15 14 14 14 14
6 5 4 3 4 4 4 4 4 4 4 4 4 4 4 4 5 5 7 7 7 8 9 11 12 14 15 15 14 14 14 14
6 5 4 4 3 3 3 4 3 3 3 3 3 3 3 4 4 5 5 6 7 6 6 7 8 9 10 13 13 15 15 14
6 6 5 3 3 3 3 3 2 3 2 2 2 2 3 3 4 4 6 5 5 6 6 6 6 6 7 9 11 11 14 14
6 6 6 4 3 2 3 2 2 2 2 2 1 2 2 2 3 3 3 5 5 5 5 5 6 5 6 6 7 7 10 11
6 5 5 4 3 3 2 2 1 2 2 2 2 1 1 1 1 1 2 2 4 4 4 5 5 5 7 6 7 6 8 8
Height
679 682 680 684 691 694 694 699 709 715 719 727 732 737 744 746 756 761 768 773 777 781 788 793 797 805 813 820 826 832 837 842
670 675 675 675 680 684 687 688 698 706 711 716 722 726 733 737 741 752 759 765 770 775 781 787 791 797 803 813 820 828 835 839
666 663 666 667 667 675 678 680 686 695 702 706 711 716 722 727 728 740 749 757 763 769 772 777 784 791 797 805 813 821 830 834
656 654 654 656 657 661 667 671 676 684 693 700 707 713 720 726 729 734 740 746 753 761 767 770 776 783 791 797 806 814 821 827
640 642 642 644 646 651 657 661 666 673 682 687 694 699 705 710 714 720 728 737 745 752 759 763 770 776 786 792 797 807 814 817
641 627 629 629 636 638 647 651 657 662 671 675 680 688 696 701 708 715 721 728 734 741 747 754 760 768 775 782 793 801 804 809
652 647 643 640 639 635 635 644 649 656 662 668 673 678 685 692 699 705 712 718 722 729 736 742 749 757 767 773 781 790 795 800
674 667 660 656 651 646 642 639 643 649 655 660 665 671 677 681 686 693 701 707 712 717 724 732 740 746 754 763 770 779 785 790
693 683 676 668 662 656 650 645 643 645 649 653 658 663 667 673 676 682 689 696 700 706 713 719 729 737 746 753 760 768 777 782
699 686 683 677 668 664 660 656 654 651 650 650 652 654 659 664 668 675 680 687 693 698 704 711 719 726 735 742 749 757 764 769
710 696 696 684 677 675 668 663 662 658 655 652 650 652 656 659 662 667 673 679 684 690 696 703 713 719 724 731 739 746 753 759
717 710 703 691 684 679 677 673 670 665 666 662 658 657 656 656 661 666 669 672 678 683 689 697 703 711 717 723 729 735 743 750
732 721 710 700 692 690 688 685 681 680 679 673 672 668 663 664 667 665 664 667 672 678 684 691 696 703 709 716 723 728 733 740
733 726 718 708 707 703 700 697 694 693 689 681 680 677 677 675 676 674 670 672 673 674 676 683 688 693 701 707 713 720 725 731
738 732 727 723 718 715 712 711 707 705 700 695 692 690 693 689 685 681 679 681 683 683 682 679 685 690 695 699 704 710 715 721
744 740 737 733 730 725 723 721 719 717 706 713 707 704 709 692 688 688 688 692 692 693 694 685 689 687 690 689 694 702 696 710
755 749 747 745 740 736 733 732 728 722 713 717 713 718 707 708 695 704 690 696 698 701 706 697 691 689 690 683 688 698 700 705
761 757 753 752 748 745 740 737 734 730 724 716 722 713 719 716 700 696 707 698 707 704 715 721 703 709 683 702 699 702 703 703
768 764 760 757 755 750 747 741 736 736 732 737 728 724 716 717 708 718 700 711 708 712 713 716 707 707 702 707 703 707 705 709
Wind_Speed
31 33 33 26 30 34 36 35 38 39 37 36 35 34 36 35 36 37 37 39 39 39 35 33 36 33 30 29 27 23 22 21
31 35 35 32 30 32 37 35 38 38 36 36 34 36 37 39 39 39 39 41 41 40 36 34 38 35 35 31 25 25 22 22
31 30 33 37 31 32 34 36 39 40 37 38 37 40 39 42 44 40 41 40 41 42 39 39 37 34 36 38 34 28 27 27
34 32 33 34 35 32 34 36 39 40 39 37 34 33 30 31 32 35 39 43 44 42 41 42 39 37 39 42 36 34 30 30
30 33 31 39 38 35 35 37 39 39 41 37 37 32 30 34 37 40 40 43 44 45 43 45 42 38 39 43 44 41 33 33
16 16 25 37 39 35 33 35 38 38 41 40 38 38 35 35 35 36 39 42 45 47 47 49 48 44 48 44 41 40 41 33
12 9 9 10 12 9 22 31 33 34 38 42 37 38 35 34 35 34 37 39 43 49 50 51 52 52 46 45 45 43 41 37
18 17 14 15 14 12 6 17 28 31 35 38 41 40 41 38 38 38 37 38 37 43 50 50 51 52 53 48 45 44 45 43
16 18 18 22 23 20 12 9 21 27 32 34 37 40 40 42 40 37 38 38 38 43 49 50 51 51 49 49 48 48 43 43
18 19 20 22 28 29 25 21 21 18 9 23 32 35 38 38 38 40 37 37 36 36 48 48 49 51 50 49 48 48 47 47
18 19 19 26 28 29 33 33 30 33 33 27 4 23 34 36 36 36 35 34 33 35 41 45 46 47 50 49 47 45 44 43
17 18 27 31 33 36 35 35 36 39 34 35 34 33 27 10 12 28 32 31 31 33 38 41 43 44 46 45 45 42 43 42
10 15 25 30 36 37 36 37 37 36 33 37 36 37 37 36 31 31 20 12 25 34 38 38 40 42 44 44 42 39 43 40
13 15 16 26 30 32 36 37 34 34 34 37 37 38 36 36 35 32 35 31 23 11 18 35 39 42 43 44 44 40 40 41
15 16 15 22 26 29 31 33 34 33 33 33 35 35 32 31 31 34 38 34 32 28 22 17 11 21 31 41 42 39 41 39
19 17 16 22 23 22 25 27 30 28 33 30 30 30 24 34 36 35 34 31 31 29 26 25 21 17 11 11 7 30 33 34
18 18 17 20 23 23 22 23 24 26 29 27 26 25 30 26 33 29 32 30 28 26 23 24 25 22 17 17 4 5 20 29
18 17 17 20 19 19 21 19 20 21 24 25 24 27 20 21 27 31 26 29 25 25 19 14 17 14 23 16 11 8 1 5
16 18 20 21 20 19 17 20 20 20 20 18 19 20 22 21 22 17 26 21 22 23 22 21 18 16 14 10 14 10 7 7
Wind_Direction
259 262 257 245 239 233 235 215 215 207 199 199 196 196 204 194 207 208 206 202 199 194 192 186 179 179 183 184 183 184 187 187
256 255 257 255 241 237 233 225 213 208 199 194 192 196 200 200 200 209 206 203 200 196 193 187 182 181 180 179 177 177 190 191
257 258 249 251 242 233 234 228 214 210 204 201 196 200 200 204 200 204 206 203 202 196 192 187 184 178 180 185 186 188 199 193
258 250 246 248 247 233 231 227 219 211 209 207 205 204 205 204 205 205 203 204 200 198 195 188 183 180 183 191 189 190 192 193
243 247 247 243 243 238 234 227 220 210 204 200 200 198 198 204 200 201 201 203 200 197 194 190 188 185 187 194 196 198 192 193
315 278 250 237 236 234 228 225 220 210 205 211 203 204 206 207 206 206 202 202 198 196 193 192 192 193 198 198 199 200 202 200
358 350 350 337 319 281 224 215 216 214 209 209 206 206 205 205 206 205 204 203 197 197 194 194 195 196 199 199 200 202 203 207
22 17 18 17 10 356 285 222 220 217 216 214 213 213 212 211 208 206 204 202 196 197 194 195 196 196 199 200 198 202 203 206
31 33 31 30 30 28 23 7 233 230 221 220 219 219 217 217 214 209 207 203 201 195 194 194 196 197 198 199 202 206 206 210
20 30 27 30 36 32 37 48 46 32 355 232 227 222 220 218 214 212 208 205 200 196 195 196 196 195 195 197 200 203 205 209
18 29 20 36 39 39 41 44 47 44 40 41 358 240 227 217 212 210 208 201 193 195 196 196 198 197 196 197 202 204 206 207
21 32 24 31 38 38 37 41 45 45 40 43 46 48 50 59 218 224 215 199 192 198 197 197 194 196 197 199 203 202 202 205
8 27 31 33 35 33 34 34 38 39 40 47 46 46 49 48 44 49 68 131 203 205 200 200 198 198 196 199 200 200 201 204
22 26 23 32 34 32 33 32 31 35 37 43 41 41 41 45 41 44 48 46 59 144 192 203 197 195 197 199 199 200 202 204
31 26 23 25 30 30 29 30 30 28 33 36 39 40 35 40 42 45 49 44 41 43 58 106 126 194 201 198 198 201 201 202
26 28 24 22 21 30 29 27 26 22 31 28 30 35 25 39 41 40 44 48 42 38 29 58 68 85 65 155 184 209 202 201
19 25 25 20 18 17 28 22 24 23 25 23 21 21 29 24 35 29 40 35 36 38 31 36 43 41 45 56 111 258 210 204
11 12 17 22 20 21 18 21 18 26 21 28 11 18 24 15 31 22 17 27 20 27 16 12 46 26 47 22 41 20 4 221
9 10 15 19 17 18 20 23 22 18 25 18 21 18 13 12 27 11 18 6 10 5 0 352 13 6 28 15 30 359 7 326